Location: Acheville
(50.3840°N, 2.8827°E)
Time: 09:56:04
(UTC+00:00)

Cosmos 389 Rocket - Pass Details

Date: 24 October 2021
Orbit: 439 x 468 km, 81.1° (Epoch: 30 November)

Event Time Altitude Azimuth Distance (km) Brightness Sun altitude
Rises 17:31:25 0° 208° (SSW) 2,421 6.7 -9.0°
Reaches altitude 10° 17:33:32 10° 216° (SW) 1,559 5.8 -9.4°
Maximum altitude 17:36:45 39° 287° (WNW) 680 3.9 -9.9°
Drops below altitude 10° 17:40:02 10° 359° (N) 1,585 5.1 -10.4°
Sets 17:42:13 0° 7° (N) 2,468 6.0 -10.7°
